TimeCDT,TemperatureF,Dew PointF,Humidity,Sea Level PressureIn,VisibilityMPH,Wind Direction,Wind SpeedMPH,Gust SpeedMPH,PrecipitationIn,Events,Conditions,WindDirDegrees,DateUTC
12:15 AM,73.0,51.4,47,30.15,10.0,South,6.9,-,N/A,,Clear,190,2013-08-30 05:15:00
12:35 AM,72.9,51.1,46,30.15,10.0,South,6.9,-,N/A,,Clear,190,2013-08-30 05:35:00
12:55 AM,72.1,51.3,48,30.15,10.0,South,6.9,-,N/A,,Clear,190,2013-08-30 05:55:00
1:15 AM,71.4,51.1,49,30.14,10.0,SSW,5.8,-,N/A,,Clear,200,2013-08-30 06:15:00
1:35 AM,70.9,51.3,50,30.15,10.0,SSW,6.9,-,N/A,,Clear,200,2013-08-30 06:35:00
1:55 AM,70.9,51.3,50,30.15,10.0,SSW,6.9,-,N/A,,Clear,200,2013-08-30 06:55:00
2:15 AM,71.2,51.8,50,30.14,10.0,SSW,8.1,-,N/A,,Clear,210,2013-08-30 07:15:00
2:35 AM,70.9,52.0,51,30.14,10.0,SSW,6.9,-,N/A,,Clear,210,2013-08-30 07:35:00
2:55 AM,70.3,52.0,52,30.14,10.0,SSW,8.1,-,N/A,,Clear,210,2013-08-30 07:55:00
3:15 AM,69.3,51.8,54,30.14,10.0,SW,4.6,-,N/A,,Clear,220,2013-08-30 08:15:00
3:35 AM,68.7,51.8,55,30.14,10.0,SW,4.6,-,N/A,,Clear,220,2013-08-30 08:35:00
3:55 AM,68.9,51.6,54,30.14,10.0,SW,3.5,-,N/A,,Clear,220,2013-08-30 08:55:00
4:15 AM,67.6,51.4,56,30.14,10.0,SSW,5.8,-,N/A,,Clear,210,2013-08-30 09:15:00
4:35 AM,66.0,52.0,60,30.13,10.0,WSW,3.5,-,N/A,,Clear,250,2013-08-30 09:35:00
4:55 AM,63.5,53.4,70,30.13,10.0,WSW,3.5,-,N/A,,Clear,240,2013-08-30 09:55:00
5:15 AM,65.1,52.5,64,30.13,10.0,SSW,3.5,-,N/A,,Clear,210,2013-08-30 10:15:00
5:35 AM,66.0,52.2,61,30.13,10.0,SSW,3.5,-,N/A,,Clear,210,2013-08-30 10:35:00
5:55 AM,63.9,52.3,66,30.13,10.0,SSW,5.8,-,N/A,,Clear,200,2013-08-30 10:55:00
6:15 AM,65.5,52.7,63,30.14,10.0,SSW,4.6,-,N/A,,Clear,210,2013-08-30 11:15:00
6:35 AM,66.4,52.7,61,30.13,10.0,SSW,4.6,-,N/A,,Clear,210,2013-08-30 11:35:00
6:55 AM,64.9,52.7,64,30.13,10.0,SSW,4.6,-,N/A,,Clear,210,2013-08-30 11:55:00
7:15 AM,65.8,53.1,63,30.14,10.0,SSW,5.8,-,N/A,,Clear,210,2013-08-30 12:15:00
7:35 AM,68.5,53.6,59,30.14,10.0,SW,8.1,-,N/A,,Clear,220,2013-08-30 12:35:00
7:55 AM,71.2,53.6,54,30.15,10.0,SW,8.1,-,N/A,,Clear,230,2013-08-30 12:55:00
9:15 AM,78.6,54.1,43,30.16,10.0,SW,10.4,-,N/A,,Clear,230,2013-08-30 14:15:00
9:35 AM,80.8,54.5,40,30.16,10.0,SW,10.4,-,N/A,,Clear,220,2013-08-30 14:35:00
9:55 AM,82.9,54.1,37,30.16,10.0,SW,9.2,-,N/A,,Clear,230,2013-08-30 14:55:00
10:15 AM,85.1,53.8,34,30.16,10.0,SW,9.2,-,N/A,,Clear,220,2013-08-30 15:15:00
10:35 AM,86.5,53.8,32,30.15,10.0,SSW,9.2,-,N/A,,Clear,210,2013-08-30 15:35:00
10:55 AM,88.5,54.0,31,30.15,10.0,SW,8.1,-,N/A,,Clear,220,2013-08-30 15:55:00
11:15 AM,90.1,54.0,29,30.15,10.0,SW,9.2,-,N/A,,Clear,220,2013-08-30 16:15:00
11:35 AM,91.8,54.1,28,30.15,10.0,SW,10.4,-,N/A,,Clear,220,2013-08-30 16:35:00
11:55 AM,92.1,53.8,27,30.14,10.0,SSW,6.9,-,N/A,,Clear,210,2013-08-30 16:55:00
12:15 PM,92.8,53.6,26,30.14,10.0,SW,10.4,-,N/A,,Clear,230,2013-08-30 17:15:00
12:35 PM,94.1,53.2,25,30.13,10.0,Calm,Calm,-,N/A,,Clear,0,2013-08-30 17:35:00
12:55 PM,94.6,53.2,25,30.13,10.0,South,5.8,-,N/A,,Clear,170,2013-08-30 17:55:00
1:15 PM,96.3,53.1,23,30.13,10.0,SSW,5.8,9.2,N/A,,Clear,210,2013-08-30 18:15:00
1:35 PM,92.3,52.2,25,30.11,10.0,Calm,Calm,-,N/A,,Clear,0,2013-08-30 18:35:00
1:55 PM,95.7,52.2,23,30.11,10.0,Calm,Calm,-,N/A,,Clear,0,2013-08-30 18:55:00
2:15 PM,96.8,51.8,22,30.10,10.0,SW,12.7,17.3,N/A,,Clear,230,2013-08-30 19:15:00
2:35 PM,97.5,51.3,21,30.10,10.0,SSW,10.4,18.4,N/A,,Clear,210,2013-08-30 19:35:00
2:55 PM,97.3,50.9,21,30.09,10.0,South,6.9,16.1,N/A,,Clear,180,2013-08-30 19:55:00
3:15 PM,98.1,50.9,20,30.09,10.0,SW,10.4,-,N/A,,Clear,220,2013-08-30 20:15:00
3:35 PM,97.7,51.3,21,30.08,10.0,SSW,12.7,19.6,N/A,,Clear,210,2013-08-30 20:35:00
3:55 PM,97.9,50.5,20,30.06,10.0,SSW,9.2,-,N/A,,Clear,200,2013-08-30 20:55:00
4:15 PM,98.1,50.0,20,30.06,10.0,Calm,Calm,-,N/A,,Clear,0,2013-08-30 21:15:00
4:35 PM,98.1,48.6,19,30.05,10.0,Calm,Calm,-,N/A,,Clear,0,2013-08-30 21:35:00
4:55 PM,98.6,50.4,20,30.05,10.0,SW,11.5,18.4,N/A,,Clear,230,2013-08-30 21:55:00
5:15 PM,98.6,49.3,19,30.04,10.0,WSW,9.2,-,N/A,,Clear,240,2013-08-30 22:15:00
5:35 PM,97.9,48.4,19,30.04,10.0,West,3.5,-,N/A,,Clear,270,2013-08-30 22:35:00
5:55 PM,97.9,47.7,18,30.03,10.0,WSW,6.9,-,N/A,,Clear,250,2013-08-30 22:55:00
6:15 PM,97.2,47.5,18,30.03,10.0,SSW,9.2,-,N/A,,Clear,200,2013-08-30 23:15:00
6:35 PM,97.0,48.6,19,30.03,10.0,South,8.1,-,N/A,,Clear,190,2013-08-30 23:35:00
6:55 PM,96.3,49.3,20,30.03,10.0,SSW,9.2,19.6,N/A,,Clear,200,2013-08-30 23:55:00
7:15 PM,95.2,49.3,21,30.03,10.0,SSW,12.7,17.3,N/A,,Clear,200,2013-08-31 00:15:00
7:35 PM,93.9,49.5,22,30.03,10.0,South,11.5,17.3,N/A,,Clear,190,2013-08-31 00:35:00
7:55 PM,91.4,51.1,25,30.03,10.0,South,13.8,-,N/A,,Clear,180,2013-08-31 00:55:00
8:15 PM,89.4,52.0,28,30.03,10.0,South,12.7,-,N/A,,Clear,170,2013-08-31 01:15:00
8:35 PM,87.4,52.0,30,30.04,10.0,South,10.4,-,N/A,,Clear,170,2013-08-31 01:35:00
8:55 PM,85.5,52.2,32,30.04,10.0,South,9.2,-,N/A,,Clear,170,2013-08-31 01:55:00
9:15 PM,84.7,52.5,33,30.04,10.0,South,10.4,-,N/A,,Clear,170,2013-08-31 02:15:00
9:35 PM,83.3,52.7,35,30.05,10.0,South,10.4,-,N/A,,Clear,170,2013-08-31 02:35:00
9:55 PM,82.4,53.1,36,30.05,10.0,South,9.2,-,N/A,,Clear,180,2013-08-31 02:55:00
10:15 PM,81.0,53.6,39,30.05,10.0,South,8.1,-,N/A,,Clear,180,2013-08-31 03:15:00
10:35 PM,79.7,53.6,40,30.06,10.0,South,9.2,-,N/A,,Clear,180,2013-08-31 03:35:00
10:55 PM,80.1,53.2,39,30.05,10.0,South,9.2,-,N/A,,Clear,180,2013-08-31 03:55:00
11:15 PM,79.0,53.2,41,30.06,10.0,South,9.2,-,N/A,,Clear,190,2013-08-31 04:15:00
11:35 PM,79.0,52.9,40,30.05,10.0,South,9.2,-,N/A,,Clear,190,2013-08-31 04:35:00
11:55 PM,78.6,52.7,40,30.05,10.0,South,10.4,-,N/A,,Clear,190,2013-08-31 04:55:00